Dean International
Flight School

Career Spotlight

Mika

Mika

Congratulations to Mika from Khazakstan. She recently sent us this photo of her flying an Airbus airliner.

More...
Mika's Success Story
close

Congratulations to Mika from Khazakstan. She recently sent us this photo of her flying an Airbus airliner.

Mario

Mario

My dreams could not have been realized if I wouldn't have been part of the Dean International family.

More...
Mario's Success Story
close

"My dreams could not have been realized if I wouldn't have been part of the Dean International family. Thank you Robert, thanks to all my co-workers, and thanks to all of my students!"

Fernando

Fernando

I am now working as a First Officer at TACA and am enjoying every moment of it.

More...
Fernando's Success Story
close

"Will never forget my time of flight training at Dean International. I am now working as a First Officer at TACA and am enjoying every moment of it."

Alvaro

Alvaro

Because of the flight time I was able to built while instructing, I got the experience needed to apply to an airline in Colombia.

More...
Alvaro's Success Story
close

Dean alumnus Alvaro Londoño currently flies with Tampa Cargo. He says of his experience at Dean: "I want to take this opportunity to thank you for giving me the chance to build my experience and expand my knowledge in Dean International. Because of the flight time I was able to built flight instructing, I got the experience needed to apply to an airline in Colombia."

Ralph

Ralph

Every Aruban student of Dean International has made it into Tiara Air Aruba, that is very nice.

More...
Ralph's Success Story
close

"Next to me is my Co-Pilot, Elison. This picture was taken on our first flight together, which was almost exactly 5 years after I finished at Dean International. [...] Every Aruban student of Dean International has made it into Tiara Air Aruba. [...] The future looks bright here in Aruba."

Rohaan

Rohaan

The [..] staff will all work diligently to help you finish your certificates as safely and efficiently as possible.

More...
Rohaan's Success Story
close

After receiving very hard times from other flight schools [...], I came to Dean International where Robert Dean personally sat down with me and gave me a financial and chronological look into how much remained to finish my private pilot certificate. Through his hard efforts as an instructor and mentor, I was able to finish my private pilot certificate within one week.

Welcome to Dean International

In over two decades, Dean International has educated over 7,000 pilots from all over the world, including over 1,000 students from India alone. By offering a great training experience, a friendly service staff, an ample variety of aircraft, and by improving constantly, we have become one of the largest, most prestigious FAA 141-approved flight schools in North America. Located in Miami, Florida, USA, our flight school offers an ideal location for year-round, "learn to fly" weather, flight training. Dean International is not only well-equipped to provide services to professional trainees but also caters to General Aviation renters. Visit or contact our headquarters at Kendall-Tamiami Executive Airport located in Miami, FL today to learn more about us, or simply read more about our programs if you are an international student interested in joining our school.

Local Airport Information
TAF FOR KTMB (Issued: Fri, October 24th 2014 6:45 PM UTC)
TAF KTMB 241743Z 2418/2518 05012G22KT P6SM SHRA BKN025
      FM242100 01012G22KT P6SM VCSH SCT030 BKN080
      FM250000 02010KT P6SM SCT030 BKN080
      FM250700 35008KT P6SM SCT030 SCT120
     
METAR FOR KTMB (Issued: Fri, October 24th 2014 6:31 PM UTC):
KTMB 241831Z 04015KT 2SM -RA BR FEW024 OVC032 24/22 A2983 RMK AO2 P0011 T02440222

This weather information is provided by the National Weather Service.
It is automatically refreshed every three minutes.
TAF FOR KHST (Issued: Fri, October 24th 2014 5:33 PM UTC)
TAF
      AMD KHST 2417/2522 03015G25KT 4800 SHRA BKN008 QNH2979INS
      BECMG 2422/2423 02012G18KT 9999 NSW SCT010 BKN035 QNH2976INS
      BECMG 2501/2502 36010KT 9999 SCT010 BKN035 QNH2975INS TX27/2420Z TN22/2511Z
      AMD 241726
     
METAR FOR KHST (Issued: Fri, October 24th 2014 6:23 PM UTC):
KHST 241823Z 01014KT 3SM RA BR BKN010 24/23 A2981 RMK AO2A CIG 008V011 BKN V OVC

This weather information is provided by the National Weather Service.
It is automatically refreshed every three minutes.
TAF FOR KOPF (Issued: Fri, October 24th 2014 6:45 PM UTC)
TAF KOPF 241743Z 2418/2518 05012G22KT P6SM VCSH SCT025 BKN035
      FM242300 01012G22KT P6SM SCT030 BKN080
      FM250500 35008KT P6SM SCT030 SCT120
     
METAR FOR KOPF (Issued: Fri, October 24th 2014 5:53 PM UTC):
KOPF 241753Z 04012G22KT 6SM -RA SCT025 BKN037 OVC060 26/22 A2984 RMK AO2 SLP107 P0000 60000 T02560217 10261 20239 58016

This weather information is provided by the National Weather Service.
It is automatically refreshed every three minutes.
TAF FOR KMIA (Issued: Fri, October 24th 2014 6:48 PM UTC)
TAF KMIA 241743Z 2418/2518 04012G22KT P6SM VCSH SCT025 BKN035
      FM242300 01012G22KT P6SM SCT030 BKN080
      FM250500 34008KT P6SM SCT030 SCT120
     
METAR FOR KMIA (Issued: Fri, October 24th 2014 5:53 PM UTC):
KMIA 241753Z 04012G18KT 5SM -RA BR FEW010 BKN030 OVC050 24/22 A2985 RMK AO2 RAB02E12B36 SLP107 P0000 60001 T02390222 10256 20239 58013

This weather information is provided by the National Weather Service.
It is automatically refreshed every three minutes.
Design by Ariel Llizo
© Dean International Inc. 2012